This is the latest recevied weather packets stored in our database for station/object WV8BRW. If no packets are shown the sender has not sent any weather packets the latest 10 day(s).
| Time | Temp. | Humidity | Pressure | Rain* | Wind** | Luminosity | Snow |
|---|---|---|---|---|---|---|---|
| 1777811433 | 2.22° C | 99% | 1019.4 hPa | 0 mm | - | 146 W/m² | - |
| 1777811129 | 1.67° C | 99% | 1019.5 hPa | 0 mm | - | 104 W/m² | - |
| 1777810827 | 1.67° C | 99% | 1019.4 hPa | 0 mm | - | 39 W/m² | - |
| 1777810523 | 1.11° C | 99% | 1019.3 hPa | 0 mm | - | 37 W/m² | - |
| 1777810220 | 1.11° C | 99% | 1019.2 hPa | 0 mm | - | 69 W/m² | - |
| 1777809916 | 0.56° C | 99% | 1019.2 hPa | 0 mm | - | 37 W/m² | - |
| 1777809615 | 0.56° C | 99% | 1019.2 hPa | 0 mm | - | 54 W/m² | - |
| 1777809312 | 0° C | 99% | 1019.2 hPa | 0 mm | - | 38 W/m² | - |
| 1777809009 | 0° C | 99% | 1019.1 hPa | 0 mm | - | 31 W/m² | - |
| 1777808707 | -0.56° C | 99% | 1019 hPa | 0 mm | - | 33 W/m² | - |
| 1777808403 | -1.11° C | 99% | 1018.7 hPa | 0 mm | - | 29 W/m² | - |
| 1777808101 | -1.11° C | 99% | 1018.8 hPa | 0 mm | - | 26 W/m² | - |
| 1777807799 | -1.67° C | 99% | 1018.8 hPa | 0 mm | - | 22 W/m² | - |
| 1777807497 | -1.67° C | 99% | 1018.8 hPa | 0 mm | - | 21 W/m² | - |
| 1777807192 | -1.67° C | 99% | 1018.4 hPa | 0 mm | - | 19 W/m² | - |
| 1777806890 | -1.67° C | 99% | 1018.5 hPa | 0 mm | - | 18 W/m² | - |
| 1777806586 | -1.67° C | 99% | 1018.8 hPa | 0 mm | - | 16 W/m² | - |
| 1777806282 | -1.67° C | 99% | 1018.4 hPa | 0 mm | - | 15 W/m² | - |
| 1777805979 | -1.67° C | 99% | 1018.4 hPa | 0 mm | - | 12 W/m² | - |
| 1777805675 | -1.67° C | 99% | 1018.4 hPa | 0 mm | - | 10 W/m² | - |
| 1777805373 | -2.22° C | 99% | 1018.4 hPa | 0 mm | - | 8 W/m² | - |
| 1777805071 | -2.22° C | 99% | 1018.4 hPa | 0 mm | - | 6 W/m² | - |
| 1777804768 | -2.22° C | 99% | 1018.2 hPa | 0 mm | - | 4 W/m² | - |
| 1777804466 | -2.22° C | 99% | 1018.1 hPa | 0 mm | - | 2 W/m² | - |
| 1777804163 | -1.67° C | 99% | 1018.3 hPa | 0 mm | - | 1 W/m² | - |
* Rain latest hour (hover to see other rain measurements)
** Current wind speed in m/s (hover to see current wind gust speed)